Location: Invercargill
(46.4000°S, 168.3500°E)
Time: 18:42:47
(UTC+13:00)

Cosmos 1633 Rocket - Pass Details

Date: 24 January 2019
Orbit: 606 x 625 km, 82.5° (Epoch: 18 October)

Event Time Altitude Azimuth Distance (km) Brightness Sun altitude
Rises 22:07:14 0° 193° (SSW) 2,912 7.4 -6.2°
Reaches altitude 10° 22:09:29 10° 196° (SSW) 2,001 6.6 -6.5°
Maximum altitude 22:13:51 61° 275° (W) 708 3.6 -7.1°
Drops below altitude 10° 22:18:11 10° 355° (N) 1,981 5.3 -7.7°
Sets 22:20:24 0° 358° (N) 2,880 6.1 -8.0°
